FW6987 Weather Reports


time (UTC)temp
F
wind
direction
speed
knots
gust
knots
rain 1hr
in
rain 24hr
in
rain mn
in
humidity
%
barometer
mb
20260905153105 72 193 0.0 1.7 0.00 0.00 0.00 74 1002.4
20260905151607 70 0 0.9 2.6 0.00 0.00 0.00 76 1002.4
20260905150100 70 31 0.0 2.6 0.00 0.00 0.00 75 1002.5
20260905144558 70 139 0.0 3.5 0.00 0.00 0.00 74 1002.5
20260905143057 70 98 1.7 4.3 0.00 0.00 0.00 74 1002.3
20260905141603 69 154 0.9 4.3 0.00 0.00 0.00 77 1002.3
20260905140127 68 297 0.9 3.5 0.00 0.00 0.00 78 1002.3
20260905134606 68 126 0.9 6.1 0.00 0.00 0.00 79 1002.2
20260905133103 67 304 0.9 7.0 0.00 0.00 0.00 80 1002.1
20260905131611 65 288 0.0 5.2 0.00 0.00 0.00 83 1002.6
20260905130101 64 125 0.9 3.5 0.00 0.00 0.00 87 1002.5
20260905124606 63 0 0.0 0.0 0.00 0.00 0.00 88 1002.7
20260905123106 63 0 0.0 0.0 0.00 0.00 0.00 87 1002.6
20260905121602 63 0 0.0 0.0 0.00 0.00 0.00 86 1002.7
20260905120053 63 0 0.0 0.0 0.00 0.00 0.00 86 1002.7
20260905114557 64 0 0.0 0.0 0.00 0.00 0.00 86 1002.5
20260905113108 64 0 0.0 2.6 0.00 0.00 0.00 85 1002.3
20260905111555 63 0 0.0 1.7 0.00 0.00 0.00 82 1002.0
20260905110054 63 307 0.9 2.6 0.00 0.00 0.00 82 1001.9
20260905104613 64 0 0.9 2.6 0.00 0.00 0.00 81 1001.7
20260905103055 64 0 0.0 2.6 0.00 0.00 0.00 81 1001.4
20260905101603 63 315 0.9 3.5 0.00 0.00 0.00 83 1001.4
20260905100117 63 0 0.9 2.6 0.00 0.00 0.00 85 1001.2
20260905094557 62 0 0.0 0.0 0.00 0.00 0.00 85 1001.3
20260905093103 62 0 0.0 1.7 0.00 0.00 0.00 85 1001.4
20260905091602 62 0 0.9 3.5 0.00 0.00 0.00 85 1001.4
20260905090131 62 0 0.0 0.9 0.00 0.00 0.00 84 1001.4
20260905084613 63 0 0.0 1.7 0.00 0.01 0.00 83 1001.5
20260905083056 63 0 0.0 1.7 0.00 0.01 0.00 81 1001.4
20260905081552 64 24 0.9 3.5 0.00 0.01 0.00 79 1001.1
20260905080059 66 0 0.0 2.6 0.00 0.01 0.00 77 1001.4
20260905074553 66 0 1.7 7.0 0.00 0.07 0.00 75 1001.3
20260905073055 67 215 2.6 7.0 0.00 0.07 0.00 74 1001.4
20260905071553 67 85 0.9 8.7 0.00 0.07 0.00 74 1001.4
20260905070058 67 4 2.6 7.8 0.00 0.07 0.00 74 1001.7
20260905064555 67 316 2.6 7.8 0.00 0.23 0.00 74 1001.8
20260905063057 67 309 2.6 6.1 0.00 0.23 0.00 74 1001.8
20260905061555 66 339 1.7 7.8 0.00 0.23 0.00 75 1001.9
20260905054555 65 0 0.9 4.3 0.00 0.24 0.00 78 1002.2
20260905053105 65 0 0.0 2.6 0.00 0.24 0.00 79 1002.3
20260905051559 65 0 0.0 4.3 0.00 0.24 0.00 79 1002.5
20260905050059 65 0 0.9 3.5 0.00 0.24 0.00 82 1002.6
20260905044603 65 114 0.9 4.3 0.00 0.24 0.00 82 1002.5
20260905043102 65 0 0.0 0.0 0.00 0.24 0.00 83 1002.5
20260905041559 65 0 0.0 0.0 0.00 0.24 0.00 83 1002.4
20260905040056 65 0 0.0 0.0 0.00 0.24 0.00 82 1002.5
20260905034616 66 0 0.0 0.0 0.00 0.24 0.24 83 1002.4
20260905033112 66 0 0.0 0.0 0.00 0.24 0.24 83 1002.6
20260905031604 66 0 0.0 0.0 0.00 0.24 0.24 83 1002.4
20260905030054 66 0 0.0 1.7 0.00 0.24 0.24 83 1002.3
20260905024603 66 0 0.0 0.0 0.00 0.24 0.24 82 1002.5
20260905023058 66 0 0.0 1.7 0.00 0.24 0.24 82 1002.5
20260905021556 66 0 0.0 1.7 0.00 0.24 0.24 81 1002.5
20260905020056 67 0 0.0 2.6 0.00 0.24 0.24 80 1002.6
20260905014615 67 3 0.0 4.3 0.00 0.24 0.24 79 1002.6
20260905013119 68 0 0.0 3.5 0.00 0.24 0.24 79 1002.7
20260905011559 68 29 0.0 4.3 0.00 0.24 0.24 78 1002.9
20260905010107 69 345 0.0 2.6 0.00 0.24 0.24 77 1002.7
20260905004656 70 334 0.0 4.3 0.00 0.24 0.24 76 1002.6
20260905003059 69 356 0.0 2.6 0.00 0.24 0.24 78 1002.7
20260905001605 69 0 0.0 4.3 0.00 0.24 0.24 79 1002.5
20260905000105 69 0 0.0 0.9 0.00 0.24 0.24 81 1002.2
20260904234603 70 0 0.0 2.6 0.00 0.24 0.24 80 1001.9
20260904233104 70 0 0.0 0.0 0.00 0.24 0.24 80 1002.1
20260904231601 71 0 0.0 0.9 0.00 0.24 0.24 78 1001.9
20260904230110 71 0 0.0 0.9 0.00 0.24 0.24 78 1002.0
20260904224559 72 0 0.0 1.7 0.00 0.24 0.24 76 1001.9
20260904223111 73 0 0.0 1.7 0.00 0.24 0.24 77 1002.0
20260904221558 74 0 0.0 1.7 0.00 0.24 0.24 75 1001.5
20260904220105 75 0 0.0 1.7 0.00 0.24 0.24 74 1001.6
20260904214612 76 304 0.0 3.5 0.00 0.24 0.24 75 1001.6
20260904213059 77 0 0.0 1.7 0.00 0.24 0.24 75 1001.5
20260904211559 77 0 0.0 0.0 0.00 0.24 0.24 75 1001.4
20260904204556 79 0 0.0 0.0 0.00 0.24 0.24 73 1001.7
20260904203104 79 0 0.0 1.7 0.00 0.24 0.24 69 1001.8
20260904201603 79 96 0.9 3.5 0.00 0.24 0.24 66 1001.9
20260904200120 80 0 0.0 1.7 0.00 0.24 0.24 65 1002.0
20260904194610 79 0 0.0 3.5 0.00 0.24 0.24 64 1001.9
20260904193056 79 112 0.9 3.5 0.00 0.24 0.24 67 1001.9
20260904191601 78 123 0.0 1.7 0.00 0.24 0.24 67 1001.9
20260904190101 77 123 0.0 2.6 0.00 0.24 0.24 67 1001.9
20260904184613 77 123 0.9 2.6 0.00 0.24 0.24 64 1002.2
20260904183053 77 99 0.0 6.1 0.00 0.24 0.24 64 1002.5
20260904181612 78 127 0.0 1.7 0.00 0.24 0.24 67 1002.6
20260904180058 78 100 0.9 2.6 0.00 0.24 0.24 67 1002.6
20260904174603 78 299 0.9 5.2 0.00 0.24 0.24 61 1002.6
20260904173101 78 337 0.9 6.1 0.00 0.24 0.24 64 1002.5
20260904171621 77 318 0.9 5.2 0.00 0.24 0.24 63 1002.7
20260904164618 77 0 0.0 7.8 0.00 0.24 0.24 64 1002.6
20260904163112 77 337 0.9 8.7 0.00 0.24 0.24 65 1002.7
20260904161615 76 307 1.7 6.1 0.00 0.24 0.24 64 1002.9
20260904160103 76 349 2.6 9.6 0.00 0.24 0.24 66 1003.2
20260904154601 76 37 1.7 6.1 0.00 0.24 0.24 69 1003.1